Meteo Giornale » Osservazioni meteo Svizzera » Ginevra-Cointrin

ore: 20:50 - Osservazioni Meteo Ginevra-Cointrin
Lat. 46° 15' N Lon. 6° 8' E Alt. 420 metri s.l.m.

poco_nuvoloso Europe/Zurich

19 °C

Poco Nuvoloso

Temp. 24 Ore

7 °C

22 °C

Nord

3.7 Km/h

Dew point 6 °C

Umidità 42 %

Visibilità  10 Km

Il sole sorge alle ore 05:52

Il sole tramonta alle ore 21:12

Data e Ora Cielo e Fenomeni T °C DP °C Um. % Pres. hPa Vis. km Vento km/h
Oggi h: 20:50 poco_nuvoloso Poco Nuvoloso 19 6 42 1015 10 N 3.7
Oggi h: 20:20 poco_nuvoloso Poco Nuvoloso 21 5 35 1015 10 N 3.7
Oggi h: 19:50 poco_nuvoloso Poco Nuvoloso 21 6 37 1015 10 NE 9.3
Oggi h: 19:20 poco_nuvoloso Poco Nuvoloso 21 6 37 1015 10 E/NE 11.1
Oggi h: 18:50 poco_nuvoloso Poco Nuvoloso 22 7 37 1015 10 NE 9.3
Oggi h: 18:20 poco_nuvoloso Poco Nuvoloso 22 7 37 1015 10 NE 9.3
Oggi h: 17:50 nuvoloso Nuvoloso 22 8 40 1015 10 NE 9.3
Oggi h: 17:20 nuvoloso Nuvoloso 22 6 35 1015 10 E/NE 9.3
Oggi h: 16:50 nuvoloso Nuvoloso 22 6 35 1016 10 NE 7.4
Oggi h: 16:20 nuvoloso Nuvoloso 22 5 32 1016 10 E 9.3
Oggi h: 15:50 nuvoloso Nuvoloso 22 4 30 1016 10 E 11.1
Oggi h: 15:20 nuvoloso Nuvoloso 21 7 40 1017 10 E/NE 9.3
Oggi h: 14:50 nuvoloso Nuvoloso 21 7 40 1017 10 N 7.4
Oggi h: 14:20 molto_nuvoloso Molto Nuvoloso 20 7 42 1017 10 N 7.4
Oggi h: 13:50 molto_nuvoloso Molto Nuvoloso 19 7 45 1017 10 NE 13
Oggi h: 13:20 molto_nuvoloso Molto Nuvoloso 19 8 48 1018 10 E/NE 13
Oggi h: 12:50 molto_nuvoloso Molto Nuvoloso 18 8 51 1018 10 NE 13
Oggi h: 12:20 molto_nuvoloso Molto Nuvoloso 18 7 48 1018 10 NE 13
Oggi h: 11:50 molto_nuvoloso Molto Nuvoloso 18 8 51 1018 10 E/NE 14.8
Oggi h: 11:20 nuvoloso Nuvoloso 17 9 59 1018 10 E/NE 14.8
Oggi h: 10:50 sereno Sereno 16 7 55 1019 10 E/NE 11.1
Oggi h: 10:20 sereno Sereno 15 7 58 1019 10 E/NE 14.8
Oggi h: 09:50 sereno Sereno 15 7 58 1019 10 NE 13
Oggi h: 09:20 sereno Sereno 14 6 58 1019 10 NE 9.3
Oggi h: 08:50 sereno Sereno 14 7 62 1019 10 E/NE 7.4
Oggi h: 08:20 sereno Sereno 13 7 66 1019 10 N 5.5
Oggi h: 07:50 sereno Sereno 11 6 71 1019 10 N 1.8
Oggi h: 07:20 sereno Sereno 10 6 76 1019 10 N 0
Oggi h: 06:50 sereno Sereno 8 5 81 1019 10 N 1.8
Oggi h: 06:20 sereno Sereno 7 4 81 1019 10 N 3.7
Oggi h: 05:50 sereno Sereno 7 4 81 1018 10 N 1.8
Oggi h: 05:20 sereno Sereno 7 4 81 1018 10 N 3.7
Oggi h: 04:50 sereno Sereno 7 4 81 1018 10 N 1.8
Oggi h: 04:20 sereno Sereno 8 4 75 1019 10 N 3.7
Oggi h: 03:50 sereno Sereno 8 5 81 1019 10 N 3.7
Oggi h: 03:20 sereno Sereno 8 4 75 1019 10 N 3.7
Oggi h: 02:50 sereno Sereno 9 5 75 1019 10 N 3.7
Oggi h: 02:20 sereno Sereno 9 5 75 1019 10 N 3.7
Oggi h: 01:50 sereno Sereno 10 5 71 1019 10 N 1.8
Oggi h: 01:20 sereno Sereno 10 5 71 1019 10 N 3.7
Oggi h: 00:50 sereno Sereno 11 5 66 1019 10 N 1.8
Oggi h: 00:20 sereno Sereno 11 5 66 1019 10 N 1.8
Ieri h: 23:50 sereno Sereno 11 6 71 1019 10 N 5.5
Ieri h: 23:20 sereno Sereno 12 6 66 1019 10 N 3.7
Ieri h: 22:50 sereno Sereno 13 6 62 1019 10 N 1.8
Ieri h: 22:20 sereno Sereno 14 6 58 1019 10 N 3.7
Ieri h: 21:50 sereno Sereno 15 6 54 1018 10 N 5.5